Weather Roundup
Issued by NWS Chicago, IL

Home | Current Version | Previous Version | Graphics & Text | Print | Product List | Glossary On
Versions: 1 2 3 4 5 6 7 8 9 10 11 12 13 14 15 16 17 18 19 20 21 22 23 24 25 26 27 28 29 30 31 32 33 34 35 36 37 38 39 40 41 42 43 44 45 46 47 48 49 50
893
NZUS59 KLOT 241704
HRRLOT

CHICAGO AREA WEATHER ROUNDUP
NATIONAL WEATHER SERVICE CHICAGO/ROMEOVILLE IL
1200 PM CDT SUN SEP 24 2017

NOTE: "FAIR" INDICATES FEW OR NO CLOUDS BELOW 12,000 FEET WITH NO
SIGNIFICANT WEATHER AND/OR OBSTRUCTIONS TO VISIBILITY.

* THESE STATIONS ARE NOT UNDER NWS QUALITY CONTROL. THEY ALSO MAY NOT
  REPORT WEATHER SUCH AS PRECIPITATION OR FOG.

ILZ005-006-012>014-019>023-241800-
NORTHEAST ILLINOIS

CITY           SKY/WX    TMP DP  RH WIND       PRES   REMARKS
OHARE          MOSUNNY   89  62  40 SW9       30.08F HX  89
MIDWAY         MOSUNNY   89  62  40 SW7       30.08F HX  89
AURORA         SUNNY     86  66  51 S13       30.09F HX  88
LANSING*       SUNNY     86  67  52 CALM      30.09F HX  89
JOLIET*        SUNNY     88  65  47 S6        30.09S HX  90
WAUKEGAN       SUNNY     88  65  46 VRB7      30.08F HX  90
DUPAGE AIRPORT SUNNY     86  64  47 S12       30.08F HX  87
WHEELING       SUNNY     89  63  41 S10       30.09F HX  90
MORRIS*        SUNNY     87  63  45 S5        30.07F HX  87
NORTHERLY ISL    N/A     80  66  62 NE1         N/A  HX  82
$$

WIZ051-052-058>065-066-070>072-241800-
SOUTHEAST WISCONSIN

CITY           SKY/WX    TMP DP  RH WIND       PRES   REMARKS
MILWAUKEE      MOSUNNY   90  62  39 S12       30.07F HX  90
KENOSHA*       SUNNY     89  62  40 S13       30.08F HX  89
RACINE*        SUNNY     86  69  56 SE8       30.09F HX  90
WAUKESHA       SUNNY     84  61  45 S8        30.10F HX  84
$$

INZ001>003-010>013-019-020-241800-
NORTHWEST INDIANA

CITY           SKY/WX    TMP DP  RH WIND       PRES   REMARKS
GARY*          SUNNY     88  59  37 SE7       30.10F HX  87
MICHIGAN CITY* NOT AVBL
RENSSELAER*    NOT AVBL
VALPARAISO     SUNNY     89  61  38 SE9       30.10F HX  89
$$

LMZ740>746-241800-
SOUTHERN LAKE MICHIGAN

STATION/POSITION TIME  SKY/WX   TEMP WIND        PRES    VSBY
                                AIR  DIR/SP/G
                 (UTC)          (F)  (DEG/KT/KT) (MB)    (MI)
HARRISON CRIB    1640            80  130/  8/  8   N/A
BURNHAM HARBOR   1700            81                N/A
CALUMET HARBOR   1630            81   50/  5/  7 1018.3F
BURNS HARBOR     1640            85  170/  5/ 12 1019.3F
MICHIGAN CITY    1640            84  140/  4/  6   N/A
$$

ABBREVIATIONS USED IN REMARKS
   TC - TEMPERATURE IN CELSIUS
  WCI - WIND CHILL INDEX
   HX - HEAT INDEX
  VSB - VISIBILITY
$$




USA.gov is the U.S. government's official web portal to all federal, state and local government web resources and services.